Regional Weather Roundup
Issued by NWS Cleveland, OH

Home | Current Version | Previous Version | Text Only | Print | Product List | Glossary On
Versions: 1 2 3 4 5 6 7 8 9 10 11 12 13 14 15 16 17 18 19 20 21 22 23 24 25 26 27 28 29 30 31 32 33 34 35 36 37 38 39 40 41 42 43 44 45 46 47 48 49 50
000
ASUS41 KCLE 240412
RWRCLE
OHIO REGIONAL WEATHER ROUNDUP
NATIONAL WEATHER SERVICE WILMINGTON, OH
1200 AM EDT TUE OCT 24 2017

NOTE: "FAIR" INDICATES FEW OR NO CLOUDS BELOW 12,000 FEET WITH NO
SIGNIFICANT WEATHER AND/OR OBSTRUCTIONS TO VISIBILITY.

OHZ001>008-015>018-024>027-034-035-043-044-240500-
   NORTHWEST OHIO

CITY           SKY/WX    TMP DP  RH WIND       PRES   REMARKS
DEFIANCE       LGT RAIN  51  47  86 W13G22    29.60R
FINDLAY        LGT RAIN  52  49  89 W18G28    29.58S
TOLEDO EXPRESS LGT RAIN  53  51  93 W17G25    29.54R
TOLEDO EXEC    CLOUDY    54  51  90 W18       29.55R
LIMA           CLOUDY    50  49  96 W16G25    29.63R FOG
$$

OHZ009>014-019>023-028>033-038-089-240500-
   NORTHEAST OHIO

CITY           SKY/WX    TMP DP  RH WIND       PRES   REMARKS
CLE-HOPKINS    LGT RAIN  59  54  83 S16G24    29.56F
CLE-LAKEFRONT  MOCLDY    59  52  77 S20G28    29.53F
CUY CO. ARPT   NOT AVBL
LORAIN-ELYRIA  LGT RAIN  57  50  77 S15G24    29.54F
ASHTABULA      CLOUDY    57  54  89 S14G25    29.58F
AKRON-CANTON   CLOUDY    57  52  83 S18G26    29.60F
WOOSTER        LGT RAIN  55  54  96 S15G22    29.59F
MANSFIELD      LGT RAIN  56  55  97 S18       29.57S
YOUNGSTOWN     CLOUDY    56  54  93 S14G24    29.61F
$$

OHZ042-051>053-060>062-070>072-077>081-240500-
  SOUTHWEST OHIO

CITY           SKY/WX    TMP DP  RH WIND       PRES   REMARKS
CINC-COVINGTON FAIR      47  45  93 W8        29.76S
CINC-LUNKEN    FAIR      50  46  86 W13       29.77S
HAMILTON       FAIR      50  48  93 W9G17     29.76R
DAYTON         LGT RAIN  49  47  93 W15       29.71R
WRIGHT-PAT AFB LGT RAIN  50  50 100 SW13      29.70R
DAYTON GENERAL LGT RAIN  50  47  89 W9        29.71S
WILMINGTON     LGT RAIN  51  50  96 W15G24    29.72R
$$

OHZ036-037-039>041-045>050-054>059-063>069-073>076-082>088-240500-
  CENTRAL AND SOUTHEAST OHIO

CITY           SKY/WX    TMP DP  RH WIND       PRES   REMARKS
COLUMBUS       RAIN      55  54  96 W15G26    29.66R FOG
OSU AIRPORT    LGT RAIN  52  52 100 W10       29.66R
BOLTON FIELD   LGT RAIN  52  51  97 W14       29.68R
RICKENBACK AFB CLOUDY    54  54  99 SW15G24   29.66S
NEWARK         CLOUDY    56  52  86 SW16G25   29.65R
MARION         LGT RAIN  52  49  89 W16       29.62R FOG
LANCASTER      CLOUDY    54  53  97 S13G20    29.68R FOG
ZANESVILLE     CLOUDY    57  54  89 S10G17    29.66F
NEW PHILLY     LGT RAIN  57  54  89 S12G20    29.64F
$$




USA.gov is the U.S. government's official web portal to all federal, state and local government web resources and services.